Location: Beddau
(51.5575°N, 3.3561°W)
Time: 17:58:06
(UTC+00:00)

Terra - Pass Details

Date: 03 March 2021
Orbit: 701 x 703 km, 98.2° (Epoch: 13 April)

Event Time Altitude Azimuth Distance (km) Brightness Sun altitude
Exits shadow 21:21:34 21° 8° (N) 1,573 3.8 -31.2°
Drops below altitude 10° 21:23:17 10° 357° (N) 2,185 4.7 -31.4°
Sets 21:25:38 0° 351° (N) 3,108 5.7 -31.7°
